,,Stat6,,Stat2,,Stat8,,Stat9,,Stat10,,Wind1,,Wind1,
time,status,PA1M_AVG,status,PR1M_SUM,status,RH1M_AVG,status,SR1M_AVG,status,TA1M_AVG,status,W1dAve1m,status,W1sAve1m,
2008-01-28, 00:00:00,VALID,916.668,VALID,0,VALID,100,VALID,-0.0169808,VALID,19.6848,VALID,6,VALID,0,
2008-01-28, 00:01:00,VALID,916.666,VALID,0,VALID,100,VALID,-0.0169808,VALID,19.6621,VALID,50,VALID,0,
2008-01-28, 00:02:00,VALID,916.659,VALID,0,VALID,100,VALID,0,VALID,19.6651,VALID,52,VALID,0,
2008-01-28, 00:03:00,VALID,916.663,VALID,0,VALID,100,VALID,-0.0169808,VALID,19.6816,VALID,52,VALID,0,
2008-01-28, 00:04:00,VALID,916.667,VALID,0,VALID,100,VALID,-0.0169808,VALID,19.6948,VALID,52,VALID,0,
2008-01-28, 00:05:00,VALID,916.684,VALID,0,VALID,100,VALID,0,VALID,19.7597,VALID,54,VALID,0,
2008-01-28, 00:06:00,VALID,916.688,VALID,0,VALID,100,VALID,-0.0169808,VALID,19.8016,VALID,59,VALID,0,
2008-01-28, 00:07:00,VALID,916.7,VALID,0,VALID,100,VALID,0,VALID,19.8019,VALID,55,VALID,0.315168,
2008-01-28, 00:08:00,VALID,916.713,VALID,0,VALID,100,VALID,0,VALID,19.8019,VALID,49,VALID,0.683008,
2008-01-28, 00:09:00,VALID,916.727,VALID,0,VALID,100,VALID,-0.0339617,VALID,19.8024,VALID,50,VALID,0.575994,
2008-01-28, 00:10:00,VALID,916.743,VALID,0,VALID,100,VALID,0,VALID,19.7789,VALID,50,VALID,0.0191592,
2008-01-28, 00:11:00,VALID,916.75,VALID,0,VALID,100,VALID,-0.0339617,VALID,19.7827,VALID,50,VALID,0,
2008-01-28, 00:12:00,VALID,916.76,VALID,0,VALID,100,VALID,0,VALID,19.7787,VALID,50,VALID,0,
2008-01-28, 00:13:00,VALID,916.758,VALID,0,VALID,100,VALID,0.0169808,VALID,19.7887,VALID,50,VALID,0,
2008-01-28, 00:14:00,VALID,916.764,VALID,0,VALID,100,VALID,0,VALID,19.7916,VALID,50,VALID,0,
2008-01-28, 00:15:00,VALID,916.759,VALID,0,VALID,100,VALID,-0.0339617,VALID,19.8248,VALID,50,VALID,0,
2008-01-28, 00:16:00,VALID,916.769,VALID,0,VALID,100,VALID,-0.0169808,VALID,19.8341,VALID,50,VALID,0,
2008-01-28, 00:17:00,VALID,916.782,VALID,0,VALID,100,VALID,0,VALID,19.8635,VALID,50,VALID,0,
2008-01-28, 00:18:00,VALID,916.771,VALID,0,VALID,100,VALID,0,VALID,19.8792,VALID,50,VALID,0,
2008-01-28, 00:19:00,VALID,916.768,VALID,0,VALID,100,VALID,-0.0339617,VALID,19.873,VALID,50,VALID,0,
2008-01-28, 00:20:00,VALID,916.758,VALID,0,VALID,100,VALID,-0.0169808,VALID,19.8211,VALID,50,VALID,0,
2008-01-28, 00:21:00,VALID,916.736,VALID,0,VALID,100,VALID,0,VALID,19.7762,VALID,50,VALID,0,
2008-01-28, 00:22:00,VALID,916.73,VALID,0,VALID,100,VALID,-0.0169808,VALID,19.7173,VALID,50,VALID,0,
2008-01-28, 00:23:00,VALID,916.719,VALID,0,VALID,100,VALID,0.0169808,VALID,19.6816,VALID,50,VALID,0,
2008-01-28, 00:24:00,VALID,916.706,VALID,0,VALID,100,VALID,0,VALID,19.6686,VALID,50,VALID,0,
2008-01-28, 00:25:00,VALID,916.698,VALID,0,VALID,100,VALID,-0.0169808,VALID,19.6619,VALID,50,VALID,0,
2008-01-28, 00:26:00,VALID,916.699,VALID,0,VALID,100,VALID,-0.0169808,VALID,19.6621,VALID,50,VALID,0,
2008-01-28, 00:27:00,VALID,916.694,VALID,0,VALID,100,VALID,0,VALID,19.6359,VALID,50,VALID,0,
2008-01-28, 00:28:00,VALID,916.674,VALID,0,VALID,100,VALID,0,VALID,19.6199,VALID,50,VALID,0,
2008-01-28, 00:29:00,VALID,916.659,VALID,0,VALID,100,VALID,-0.0169808,VALID,19.6234,VALID,50,VALID,0,
2008-01-28, 00:30:00,VALID,916.67,VALID,0,VALID,100,VALID,-0.0169808,VALID,19.6232,VALID,50,VALID,0,
2008-01-28, 00:31:00,VALID,916.67,VALID,0,VALID,100,VALID,-0.0169808,VALID,19.604,VALID,50,VALID,0,
2008-01-28, 00:32:00,VALID,916.677,VALID,0,VALID,100,VALID,0.0169808,VALID,19.5486,VALID,57,VALID,0,
2008-01-28, 00:33:00,VALID,916.668,VALID,0,VALID,100,VALID,0.0169808,VALID,19.5388,VALID,100,VALID,0,
2008-01-28, 00:34:00,VALID,916.667,VALID,0,VALID,100,VALID,0,VALID,19.5261,VALID,100,VALID,0,
2008-01-28, 00:35:00,VALID,916.655,VALID,0,VALID,100,VALID,0,VALID,19.5169,VALID,100,VALID,0,
2008-01-28, 00:36:00,VALID,916.629,VALID,0,VALID,100,VALID,0,VALID,19.3831,VALID,90,VALID,0.228379,
2008-01-28, 00:37:00,VALID,916.606,VALID,0,VALID,100,VALID,0,VALID,19.3804,VALID,82,VALID,0.749467,
2008-01-28, 00:38:00,VALID,916.585,VALID,0,VALID,100,VALID,-0.0169808,VALID,19.455,VALID,91,VALID,0.876453,
2008-01-28, 00:39:00,VALID,916.556,VALID,0,VALID,100,VALID,0,VALID,19.5361,VALID,105,VALID,0.919212,
2008-01-28, 00:40:00,VALID,916.536,VALID,0,VALID,100,VALID,0,VALID,19.5683,VALID,110,VALID,0.942107,
2008-01-28, 00:41:00,VALID,916.52,VALID,0,VALID,100,VALID,-0.0169808,VALID,19.5458,VALID,115,VALID,0.928416,
2008-01-28, 00:42:00,VALID,916.51,VALID,0,VALID,100,VALID,0,VALID,19.5064,VALID,121,VALID,0.930432,
2008-01-28, 00:43:00,VALID,916.503,VALID,0,VALID,100,VALID,0,VALID,19.5161,VALID,129,VALID,0.713605,
2008-01-28, 00:44:00,VALID,916.494,VALID,0,VALID,100,VALID,0.0169808,VALID,19.5426,VALID,137,VALID,0.451891,
2008-01-28, 00:45:00,VALID,916.487,VALID,0,VALID,100,VALID,0,VALID,19.5388,VALID,137,VALID,0,
2008-01-28, 00:46:00,VALID,916.505,VALID,0,VALID,100,VALID,0.0339617,VALID,19.5421,VALID,137,VALID,0,
2008-01-28, 00:47:00,VALID,916.515,VALID,0,VALID,100,VALID,0.0169808,VALID,19.5586,VALID,138,VALID,0,
2008-01-28, 00:48:00,VALID,916.542,VALID,0,VALID,100,VALID,0.0169808,VALID,19.5488,VALID,141,VALID,0,
2008-01-28, 00:49:00,VALID,916.56,VALID,0,VALID,100,VALID,0,VALID,19.5396,VALID,141,VALID,0,
2008-01-28, 00:50:00,VALID,916.581,VALID,0,VALID,100,VALID,-0.0339617,VALID,19.4969,VALID,142,VALID,0,
2008-01-28, 00:51:00,VALID,916.595,VALID,0,VALID,100,VALID,0.0169808,VALID,19.471,VALID,235,VALID,0,
2008-01-28, 00:52:00,VALID,916.608,VALID,0,VALID,100,VALID,0,VALID,19.5458,VALID,300,VALID,0,
2008-01-28, 00:53:00,VALID,916.604,VALID,0,VALID,100,VALID,0.0169808,VALID,19.5848,VALID,300,VALID,0,
2008-01-28, 00:54:00,VALID,916.595,VALID,0,VALID,100,VALID,0,VALID,19.6302,VALID,300,VALID,0,
2008-01-28, 00:55:00,VALID,916.59,VALID,0,VALID,100,VALID,0,VALID,19.6496,VALID,300,VALID,0,
2008-01-28, 00:56:00,VALID,916.592,VALID,0,VALID,100,VALID,0,VALID,19.6661,VALID,300,VALID,0,
2008-01-28, 00:57:00,VALID,916.582,VALID,0,VALID,100,VALID,-0.0169808,VALID,19.6726,VALID,300,VALID,0,
2008-01-28, 00:58:00,VALID,916.568,VALID,0,VALID,100,VALID,0,VALID,19.6302,VALID,300,VALID,0,
2008-01-28, 00:59:00,VALID,916.549,VALID,0,VALID,100,VALID,0.0339617,VALID,19.5778,VALID,299,VALID,0,
2008-01-28, 01:00:00,VALID,916.545,VALID,0,VALID,100,VALID,0.0339617,VALID,19.5745,VALID,299,VALID,0,
2008-01-28, 01:01:00,VALID,916.548,VALID,0,VALID,100,VALID,0,VALID,19.6005,VALID,299,VALID,0,
2008-01-28, 01:02:00,VALID,916.542,VALID,0,VALID,100,VALID,0.0169808,VALID,19.6234,VALID,172,VALID,0,
2008-01-28, 01:03:00,VALID,916.532,VALID,0,VALID,100,VALID,0,VALID,19.6624,VALID,140,VALID,0.0956101,
2008-01-28, 01:04:00,VALID,916.522,VALID,0,VALID,100,VALID,0.0169808,VALID,19.6948,VALID,137,VALID,0.732292,
2008-01-28, 01:05:00,VALID,916.504,VALID,0,VALID,100,VALID,-0.0169808,VALID,19.7016,VALID,123,VALID,0.754261,
2008-01-28, 01:06:00,VALID,916.502,VALID,0,VALID,100,VALID,0,VALID,19.6724,VALID,116,VALID,0.365885,
2008-01-28, 01:07:00,VALID,916.485,VALID,0,VALID,100,VALID,0,VALID,19.6753,VALID,118,VALID,0.542225,
2008-01-28, 01:08:00,VALID,916.481,VALID,0,VALID,100,VALID,0,VALID,19.6793,VALID,119,VALID,0.548473,
2008-01-28, 01:09:00,VALID,916.482,VALID,0,VALID,100,VALID,-0.0339617,VALID,19.6726,VALID,125,VALID,0.716602,
2008-01-28, 01:10:00,VALID,916.469,VALID,0,VALID,100,VALID,-0.0339617,VALID,19.6856,VALID,125,VALID,0.622396,
2008-01-28, 01:11:00,VALID,916.479,VALID,0,VALID,100,VALID,-0.0169808,VALID,19.6981,VALID,123,VALID,0.406445,
2008-01-28, 01:12:00,VALID,916.484,VALID,0,VALID,100,VALID,0,VALID,19.7078,VALID,133,VALID,0.842226,
2008-01-28, 01:13:00,VALID,916.489,VALID,0,VALID,100,VALID,0,VALID,19.7145,VALID,128,VALID,1.02552,
2008-01-28, 01:14:00,VALID,916.504,VALID,0,VALID,100,VALID,-0.0169808,VALID,19.7305,VALID,132,VALID,1.01816,
2008-01-28, 01:15:00,VALID,916.505,VALID,0,VALID,100,VALID,0,VALID,19.7634,VALID,132,VALID,0.982329,
2008-01-28, 01:16:00,VALID,916.5,VALID,0,VALID,100,VALID,0.0169808,VALID,19.7792,VALID,134,VALID,0.192835,
2008-01-28, 01:17:00,VALID,916.497,VALID,0,VALID,100,VALID,-0.0339617,VALID,19.7862,VALID,119,VALID,0,
2008-01-28, 01:18:00,VALID,916.492,VALID,0,VALID,100,VALID,0,VALID,19.7862,VALID,108,VALID,0,
2008-01-28, 01:19:00,VALID,916.487,VALID,0,VALID,100,VALID,0,VALID,19.7986,VALID,107,VALID,0,
2008-01-28, 01:20:00,VALID,916.469,VALID,0,VALID,100,VALID,0,VALID,19.7921,VALID,106,VALID,0,
2008-01-28, 01:21:00,VALID,916.465,VALID,0,VALID,100,VALID,0,VALID,19.7697,VALID,92,VALID,0,
2008-01-28, 01:22:00,VALID,916.461,VALID,0,VALID,100,VALID,-0.0169808,VALID,19.7405,VALID,102,VALID,0,
2008-01-28, 01:23:00,VALID,916.456,VALID,0,VALID,100,VALID,0.0339617,VALID,19.717,VALID,108,VALID,0,
2008-01-28, 01:24:00,VALID,916.462,VALID,0,VALID,100,VALID,0.0339617,VALID,19.708,VALID,119,VALID,0.0436481,
2008-01-28, 01:25:00,VALID,916.481,VALID,0,VALID,100,VALID,-0.0169808,VALID,19.6921,VALID,130,VALID,0,
2008-01-28, 01:26:00,VALID,916.5,VALID,0,VALID,100,VALID,0.0169808,VALID,19.6853,VALID,136,VALID,0,
2008-01-28, 01:27:00,VALID,916.503,VALID,0,VALID,100,VALID,-0.0169808,VALID,19.6816,VALID,146,VALID,0.361861,
2008-01-28, 01:28:00,VALID,916.504,VALID,0,VALID,100,VALID,0.0509425,VALID,19.6978,VALID,143,VALID,1.08899,
2008-01-28, 01:29:00,VALID,916.492,VALID,0,VALID,100,VALID,0.0509425,VALID,19.6911,VALID,155,VALID,0.910156,
2008-01-28, 01:30:00,VALID,916.484,VALID,0,VALID,100,VALID,0.0169808,VALID,19.6946,VALID,161,VALID,0.493608,
2008-01-28, 01:31:00,VALID,916.453,VALID,0,VALID,100,VALID,0,VALID,19.6913,VALID,162,VALID,1.22409,
2008-01-28, 01:32:00,VALID,916.419,VALID,0,VALID,100,VALID,0.0339617,VALID,19.6978,VALID,124,VALID,1.02947,
2008-01-28, 01:33:00,VALID,916.407,VALID,0,VALID,100,VALID,0.0339617,VALID,19.6848,VALID,129,VALID,0.755394,
2008-01-28, 01:34:00,VALID,916.395,VALID,0,VALID,100,VALID,0.0169808,VALID,19.6686,VALID,132,VALID,0.741425,
2008-01-28, 01:35:00,VALID,916.392,VALID,0,VALID,100,VALID,0.0339617,VALID,19.6521,VALID,121,VALID,0.305069,
2008-01-28, 01:36:00,VALID,916.376,VALID,0,VALID,100,VALID,0.0169808,VALID,19.6362,VALID,120,VALID,0,
2008-01-28, 01:37:00,VALID,916.373,VALID,0,VALID,100,VALID,0.0169808,VALID,19.6007,VALID,120,VALID,0,
2008-01-28, 01:38:00,VALID,916.366,VALID,0,VALID,100,VALID,0,VALID,19.581,VALID,116,VALID,0.585193,
2008-01-28, 01:39:00,VALID,916.363,VALID,0,VALID,100,VALID,0.0339617,VALID,19.5745,VALID,118,VALID,0.44215,
2008-01-28, 01:40:00,VALID,916.359,VALID,0,VALID,100,VALID,0.0339617,VALID,19.5516,VALID,140,VALID,0.00186012,
2008-01-28, 01:41:00,VALID,916.334,VALID,0,VALID,100,VALID,0,VALID,19.5289,VALID,153,VALID,0,
2008-01-28, 01:42:00,VALID,916.316,VALID,0,VALID,100,VALID,0,VALID,19.5159,VALID,151,VALID,0,
2008-01-28, 01:43:00,VALID,916.312,VALID,0,VALID,100,VALID,0,VALID,19.5064,VALID,147,VALID,0,
2008-01-28, 01:44:00,VALID,916.281,VALID,0,VALID,100,VALID,0,VALID,19.4902,VALID,147,VALID,0,
2008-01-28, 01:45:00,VALID,916.258,VALID,0,VALID,100,VALID,0.0509425,VALID,19.4705,VALID,147,VALID,0,
2008-01-28, 01:46:00,VALID,916.218,VALID,0,VALID,100,VALID,0.0169808,VALID,19.461,VALID,147,VALID,0,
2008-01-28, 01:47:00,VALID,916.193,VALID,0,VALID,100,VALID,0,VALID,19.4413,VALID,147,VALID,0,
2008-01-28, 01:48:00,VALID,916.188,VALID,0,VALID,100,VALID,0.0169808,VALID,19.4378,VALID,147,VALID,0,
2008-01-28, 01:49:00,VALID,916.163,VALID,0,VALID,100,VALID,0.0339617,VALID,19.4413,VALID,146,VALID,0,
2008-01-28, 01:50:00,VALID,916.151,VALID,0,VALID,100,VALID,0.0679233,VALID,19.451,VALID,141,VALID,0,
2008-01-28, 01:51:00,VALID,916.136,VALID,0,VALID,100,VALID,0.0169808,VALID,19.4542,VALID,141,VALID,0,
2008-01-28, 01:52:00,VALID,916.115,VALID,0,VALID,100,VALID,0,VALID,19.4802,VALID,141,VALID,0,
2008-01-28, 01:53:00,VALID,916.117,VALID,0,VALID,100,VALID,0.0339617,VALID,19.4867,VALID,141,VALID,0,
2008-01-28, 01:54:00,VALID,916.107,VALID,0,VALID,100,VALID,0.0679233,VALID,19.4997,VALID,141,VALID,0,
2008-01-28, 01:55:00,VALID,916.112,VALID,0,VALID,100,VALID,0.0679233,VALID,19.4705,VALID,141,VALID,0,
2008-01-28, 01:56:00,VALID,916.098,VALID,0,VALID,100,VALID,0.0339617,VALID,19.437,VALID,141,VALID,0,
2008-01-28, 01:57:00,VALID,916.086,VALID,0,VALID,100,VALID,0.0339617,VALID,19.4285,VALID,141,VALID,0,
2008-01-28, 01:58:00,VALID,916.075,VALID,0,VALID,100,VALID,-0.0509425,VALID,19.3871,VALID,109,VALID,0,
2008-01-28, 01:59:00,VALID,916.058,VALID,0,VALID,100,VALID,-0.0339617,VALID,19.3352,VALID,40,VALID,0,
2008-01-28, 02:00:00,VALID,916.026,VALID,0,VALID,100,VALID,-0.0509425,VALID,19.3552,VALID,40,VALID,0,
2008-01-28, 02:01:00,VALID,916.007,VALID,0,VALID,100,VALID,-0.0509425,VALID,19.417,VALID,40,VALID,0,
2008-01-28, 02:02:00,VALID,915.988,VALID,0,VALID,100,VALID,-0.0509425,VALID,19.445,VALID,40,VALID,0,
2008-01-28, 02:03:00,VALID,915.962,VALID,0,VALID,100,VALID,-0.101885,VALID,19.4719,VALID,40,VALID,0,
2008-01-28, 02:04:00,VALID,915.952,VALID,0,VALID,100,VALID,-0.0339617,VALID,19.4655,VALID,40,VALID,0,
2008-01-28, 02:05:00,VALID,915.933,VALID,0,VALID,100,VALID,-0.0169808,VALID,19.4525,VALID,40,VALID,0,
2008-01-28, 02:06:00,VALID,915.917,VALID,0,VALID,100,VALID,-0.0849042,VALID,19.4395,VALID,40,VALID,0,
2008-01-28, 02:07:00,VALID,915.91,VALID,0,VALID,100,VALID,-0.0509425,VALID,19.4133,VALID,40,VALID,0,
2008-01-28, 02:08:00,VALID,915.915,VALID,0,VALID,100,VALID,-0.0509425,VALID,19.3484,VALID,40,VALID,0,
2008-01-28, 02:09:00,VALID,915.907,VALID,0,VALID,100,VALID,-0.0339617,VALID,19.2254,VALID,40,VALID,0,
2008-01-28, 02:10:00,VALID,915.896,VALID,0,VALID,100,VALID,-0.0679233,VALID,19.1603,VALID,40,VALID,0,
2008-01-28, 02:11:00,VALID,915.88,VALID,0,VALID,100,VALID,-0.0339617,VALID,19.1565,VALID,40,VALID,0,
2008-01-28, 02:12:00,VALID,915.875,VALID,0,VALID,100,VALID,-0.0509425,VALID,19.182,VALID,40,VALID,0,
2008-01-28, 02:13:00,VALID,915.854,VALID,0,VALID,100,VALID,-0.0509425,VALID,19.2127,VALID,40,VALID,0,
2008-01-28, 02:14:00,VALID,915.833,VALID,0,VALID,100,VALID,-0.0169808,VALID,19.2416,VALID,40,VALID,0,
2008-01-28, 02:15:00,VALID,915.822,VALID,0,VALID,100,VALID,-0.0339617,VALID,19.2838,VALID,40,VALID,0,
2008-01-28, 02:16:00,VALID,915.8,VALID,0,VALID,100,VALID,-0.0339617,VALID,19.3065,VALID,40,VALID,0,
2008-01-28, 02:17:00,VALID,915.796,VALID,0,VALID,100,VALID,-0.0849042,VALID,19.3287,VALID,40,VALID,0,
2008-01-28, 02:18:00,VALID,915.8,VALID,0,VALID,100,VALID,-0.101885,VALID,19.3457,VALID,40,VALID,0,
2008-01-28, 02:19:00,VALID,915.798,VALID,0,VALID,100,VALID,-0.0849042,VALID,19.3614,VALID,40,VALID,0,
2008-01-28, 02:20:00,VALID,915.78,VALID,0,VALID,100,VALID,-0.0509425,VALID,19.3514,VALID,40,VALID,0,
2008-01-28, 02:21:00,VALID,915.771,VALID,0,VALID,100,VALID,-0.0339617,VALID,19.3387,VALID,40,VALID,0,
2008-01-28, 02:22:00,VALID,915.765,VALID,0,VALID,100,VALID,-0.0509425,VALID,19.3192,VALID,40,VALID,0,
2008-01-28, 02:23:00,VALID,915.748,VALID,0,VALID,100,VALID,-0.0509425,VALID,19.3125,VALID,40,VALID,0,
2008-01-28, 02:24:00,VALID,915.742,VALID,0,VALID,100,VALID,-0.101885,VALID,19.297,VALID,40,VALID,0,
2008-01-28, 02:25:00,VALID,915.724,VALID,0,VALID,100,VALID,-0.0679233,VALID,19.1473,VALID,40,VALID,0,
2008-01-28, 02:26:00,VALID,915.715,VALID,0,VALID,100,VALID,-0.0509425,VALID,19.0857,VALID,40,VALID,0,
2008-01-28, 02:27:00,VALID,915.677,VALID,0,VALID,100,VALID,-0.0509425,VALID,19.0597,VALID,40,VALID,0,
2008-01-28, 02:28:00,VALID,915.645,VALID,0,VALID,100,VALID,0,VALID,19.0587,VALID,40,VALID,0,
2008-01-28, 02:29:00,VALID,915.629,VALID,0,VALID,100,VALID,0,VALID,19.0523,VALID,40,VALID,0,
2008-01-28, 02:30:00,VALID,915.599,VALID,0,VALID,100,VALID,0,VALID,19.0228,VALID,40,VALID,0,
2008-01-28, 02:31:00,VALID,915.574,VALID,0,VALID,100,VALID,0,VALID,19.039,VALID,40,VALID,0,
2008-01-28, 02:32:00,VALID,915.553,VALID,0,VALID,100,VALID,0.0169808,VALID,19.0912,VALID,40,VALID,0,
2008-01-28, 02:33:00,VALID,915.518,VALID,0,VALID,100,VALID,0,VALID,19.1141,VALID,40,VALID,0,
2008-01-28, 02:34:00,VALID,915.497,VALID,0,VALID,100,VALID,0,VALID,19.1236,VALID,40,VALID,0,
2008-01-28, 02:35:00,VALID,915.457,VALID,0,VALID,100,VALID,0,VALID,19.1301,VALID,40,VALID,0,
2008-01-28, 02:36:00,VALID,915.435,VALID,0,VALID,100,VALID,0,VALID,19.1593,VALID,40,VALID,0,
2008-01-28, 02:37:00,VALID,915.419,VALID,0,VALID,100,VALID,0,VALID,19.2277,VALID,1,VALID,0.161044,
2008-01-28, 02:38:00,VALID,915.399,VALID,0,VALID,100,VALID,0.0169808,VALID,19.2826,VALID,313,VALID,0.00186012,
2008-01-28, 02:39:00,VALID,915.379,VALID,0,VALID,100,VALID,0,VALID,19.3085,VALID,309,VALID,0,
2008-01-28, 02:40:00,VALID,915.383,VALID,0,VALID,100,VALID,0,VALID,19.3182,VALID,309,VALID,0,
2008-01-28, 02:41:00,VALID,915.396,VALID,0,VALID,100,VALID,0.0169808,VALID,19.3182,VALID,309,VALID,0,
2008-01-28, 02:42:00,VALID,915.399,VALID,0,VALID,100,VALID,0.0169808,VALID,19.3285,VALID,309,VALID,0,
2008-01-28, 02:43:00,VALID,915.42,VALID,0,VALID,100,VALID,-0.101885,VALID,19.3292,VALID,309,VALID,0,
2008-01-28, 02:44:00,VALID,915.436,VALID,0,VALID,100,VALID,-0.101885,VALID,19.3297,VALID,309,VALID,0,
2008-01-28, 02:45:00,VALID,915.441,VALID,0,VALID,100,VALID,-0.0509425,VALID,19.3165,VALID,309,VALID,0,
2008-01-28, 02:46:00,VALID,915.455,VALID,0,VALID,100,VALID,-0.118866,VALID,19.313,VALID,309,VALID,0,
2008-01-28, 02:47:00,VALID,915.471,VALID,0,VALID,100,VALID,-0.0849042,VALID,19.31,VALID,309,VALID,0,
2008-01-28, 02:48:00,VALID,915.48,VALID,0,VALID,100,VALID,-0.101885,VALID,19.3067,VALID,309,VALID,0,
2008-01-28, 02:49:00,VALID,915.48,VALID,0,VALID,100,VALID,-0.118866,VALID,19.2873,VALID,309,VALID,0,
2008-01-28, 02:50:00,VALID,915.482,VALID,0,VALID,100,VALID,-0.118866,VALID,19.2648,VALID,309,VALID,0,
2008-01-28, 02:51:00,VALID,915.473,VALID,0,VALID,100,VALID,-0.118866,VALID,19.2518,VALID,309,VALID,0,
2008-01-28, 02:52:00,VALID,915.465,VALID,0,VALID,100,VALID,-0.0849042,VALID,19.2516,VALID,234,VALID,0.0470655,
2008-01-28, 02:53:00,VALID,915.459,VALID,0,VALID,100,VALID,-0.0849042,VALID,19.2321,VALID,171,VALID,0.533067,
2008-01-28, 02:54:00,VALID,915.452,VALID,0,VALID,100,VALID,-0.0849042,VALID,19.1867,VALID,161,VALID,0.8508,
2008-01-28, 02:55:00,VALID,915.433,VALID,0,VALID,100,VALID,-0.101885,VALID,19.1448,VALID,159,VALID,0.916606,
2008-01-28, 02:56:00,VALID,915.426,VALID,0,VALID,100,VALID,-0.0849042,VALID,19.1348,VALID,150,VALID,0.344122,
2008-01-28, 02:57:00,VALID,915.413,VALID,0,VALID,100,VALID,-0.0849042,VALID,19.138,VALID,149,VALID,0.0845703,
2008-01-28, 02:58:00,VALID,915.396,VALID,0,VALID,100,VALID,0,VALID,19.1269,VALID,147,VALID,0.460565,
2008-01-28, 02:59:00,VALID,915.396,VALID,0,VALID,100,VALID,0,VALID,19.1431,VALID,148,VALID,0.202939,
2008-01-28, 03:00:00,VALID,915.386,VALID,0,VALID,100,VALID,0.0169808,VALID,19.15,VALID,146,VALID,0.279978,
2008-01-28, 03:01:00,VALID,915.377,VALID,0,VALID,100,VALID,-0.0169808,VALID,19.1558,VALID,151,VALID,0.777699,
2008-01-28, 03:02:00,VALID,915.359,VALID,0,VALID,100,VALID,0,VALID,19.1723,VALID,150,VALID,0.667411,
2008-01-28, 03:03:00,VALID,915.364,VALID,0,VALID,100,VALID,0,VALID,19.1852,VALID,146,VALID,0.671512,
2008-01-28, 03:04:00,VALID,915.349,VALID,0,VALID,100,VALID,0,VALID,19.182,VALID,135,VALID,0.991832,
2008-01-28, 03:05:00,VALID,915.359,VALID,0,VALID,100,VALID,0,VALID,19.1688,VALID,132,VALID,1.06455,
2008-01-28, 03:06:00,VALID,915.349,VALID,0,VALID,100,VALID,0.0169808,VALID,19.1528,VALID,132,VALID,1.32552,
2008-01-28, 03:07:00,VALID,915.351,VALID,0,VALID,100,VALID,0,VALID,19.1336,VALID,129,VALID,0.952172,
2008-01-28, 03:08:00,VALID,915.338,VALID,0,VALID,100,VALID,0.0339617,VALID,19.1333,VALID,119,VALID,1.11446,
2008-01-28, 03:09:00,VALID,915.321,VALID,0,VALID,100,VALID,-0.0169808,VALID,19.1463,VALID,120,VALID,0.941964,
2008-01-28, 03:10:00,VALID,915.29,VALID,0,VALID,100,VALID,0,VALID,19.1593,VALID,134,VALID,1.33448,
2008-01-28, 03:11:00,VALID,915.276,VALID,0,VALID,100,VALID,0.0169808,VALID,19.1917,VALID,135,VALID,1.10156,
2008-01-28, 03:12:00,VALID,915.261,VALID,0,VALID,100,VALID,0,VALID,19.195,VALID,150,VALID,0.881138,
2008-01-28, 03:13:00,VALID,915.259,VALID,0,VALID,100,VALID,-0.0169808,VALID,19.2242,VALID,144,VALID,1.18229,
2008-01-28, 03:14:00,VALID,915.259,VALID,0,VALID,100,VALID,0.0169808,VALID,19.2272,VALID,142,VALID,1.24896,
2008-01-28, 03:15:00,VALID,915.254,VALID,0,VALID,100,VALID,0,VALID,19.2137,VALID,139,VALID,1.26381,
2008-01-28, 03:16:00,VALID,915.254,VALID,0,VALID,100,VALID,0,VALID,19.2369,VALID,146,VALID,1.5629,
2008-01-28, 03:17:00,VALID,915.248,VALID,0,VALID,100,VALID,0.0169808,VALID,19.2564,VALID,143,VALID,1.54549,
2008-01-28, 03:18:00,VALID,915.254,VALID,0,VALID,100,VALID,0.0169808,VALID,19.2599,VALID,154,VALID,1.75298,
2008-01-28, 03:19:00,VALID,915.246,VALID,0,VALID,100,VALID,0.0169808,VALID,19.2626,VALID,154,VALID,1.63628,
2008-01-28, 03:20:00,VALID,915.229,VALID,0,VALID,100,VALID,0,VALID,19.2761,VALID,150,VALID,1.71342,
2008-01-28, 03:21:00,VALID,915.222,VALID,0,VALID,100,VALID,0.0169808,VALID,19.2823,VALID,152,VALID,1.53032,
2008-01-28, 03:22:00,VALID,915.196,VALID,0,VALID,100,VALID,0,VALID,19.2826,VALID,156,VALID,0.639172,
2008-01-28, 03:23:00,VALID,915.191,VALID,0,VALID,100,VALID,0.0339617,VALID,19.289,VALID,152,VALID,0.703125,
2008-01-28, 03:24:00,VALID,915.172,VALID,0,VALID,100,VALID,0.0169808,VALID,19.2888,VALID,155,VALID,0.997024,
2008-01-28, 03:25:00,VALID,915.154,VALID,0,VALID,100,VALID,0.0169808,VALID,19.2923,VALID,153,VALID,0.358487,
2008-01-28, 03:26:00,VALID,915.122,VALID,0,VALID,100,VALID,0.0169808,VALID,19.2955,VALID,149,VALID,1.00484,
2008-01-28, 03:27:00,VALID,915.093,VALID,0,VALID,100,VALID,-0.0339617,VALID,19.2928,VALID,149,VALID,1.66193,
2008-01-28, 03:28:00,VALID,915.077,VALID,0,VALID,100,VALID,-0.118866,VALID,19.2908,VALID,171,VALID,1.1393,
2008-01-28, 03:29:00,VALID,915.059,VALID,0,VALID,100,VALID,-0.0849042,VALID,19.2838,VALID,144,VALID,0.465511,
2008-01-28, 03:30:00,VALID,915.038,VALID,0,VALID,100,VALID,-0.0849042,VALID,19.284,VALID,168,VALID,0.821528,
2008-01-28, 03:31:00,VALID,915.024,VALID,0,VALID,100,VALID,-0.101885,VALID,19.2768,VALID,151,VALID,0.804102,
2008-01-28, 03:32:00,VALID,915.007,VALID,0,VALID,100,VALID,-0.118866,VALID,19.2643,VALID,146,VALID,1.42842,
2008-01-28, 03:33:00,VALID,914.986,VALID,0,VALID,100,VALID,-0.101885,VALID,19.2611,VALID,152,VALID,1.06709,
2008-01-28, 03:34:00,VALID,914.969,VALID,0,VALID,100,VALID,-0.101885,VALID,19.2641,VALID,163,VALID,1.72396,
2008-01-28, 03:35:00,VALID,914.928,VALID,0,VALID,100,VALID,-0.101885,VALID,19.2611,VALID,180,VALID,1.43359,
2008-01-28, 03:36:00,VALID,914.913,VALID,0,VALID,100,VALID,-0.101885,VALID,19.2546,VALID,176,VALID,1.37082,
2008-01-28, 03:37:00,VALID,914.898,VALID,0,VALID,100,VALID,-0.118866,VALID,19.2483,VALID,178,VALID,1.62585,
2008-01-28, 03:38:00,VALID,914.885,VALID,0,VALID,100,VALID,-0.135847,VALID,19.2423,VALID,167,VALID,1.6423,
2008-01-28, 03:39:00,VALID,914.896,VALID,0,VALID,100,VALID,-0.135847,VALID,19.2324,VALID,188,VALID,1.51674,
2008-01-28, 03:40:00,VALID,914.903,VALID,0,VALID,100,VALID,-0.118866,VALID,19.2291,VALID,161,VALID,0.900923,
2008-01-28, 03:41:00,VALID,914.921,VALID,0,VALID,100,VALID,-0.101885,VALID,19.2161,VALID,162,VALID,0.815358,
2008-01-28, 03:42:00,VALID,914.934,VALID,0,VALID,100,VALID,-0.101885,VALID,19.1994,VALID,148,VALID,0.221236,
2008-01-28, 03:43:00,VALID,914.935,VALID,0,VALID,100,VALID,0,VALID,19.1987,VALID,173,VALID,0.518787,
2008-01-28, 03:44:00,VALID,914.952,VALID,0,VALID,100,VALID,-0.0339617,VALID,19.1825,VALID,163,VALID,0.690407,
2008-01-28, 03:45:00,VALID,914.948,VALID,0,VALID,100,VALID,-0.0169808,VALID,19.1795,VALID,154,VALID,0.664418,
2008-01-28, 03:46:00,VALID,914.944,VALID,0,VALID,100,VALID,-0.0339617,VALID,19.1658,VALID,173,VALID,0.674183,
2008-01-28, 03:47:00,VALID,914.942,VALID,0,VALID,100,VALID,-0.0169808,VALID,19.1496,VALID,176,VALID,0.446429,
2008-01-28, 03:48:00,VALID,914.941,VALID,0,VALID,100,VALID,-0.0169808,VALID,19.1431,VALID,181,VALID,0.462573,
2008-01-28, 03:49:00,VALID,914.943,VALID,0,VALID,100,VALID,0,VALID,19.153,VALID,203,VALID,0.308203,
2008-01-28, 03:50:00,VALID,914.948,VALID,0,VALID,100,VALID,0,VALID,19.1593,VALID,214,VALID,0,